Previsão horária em Abomey

Hoje, 18 Maio, Terça-feira

Tempo Temperatura Precipitação Vento Pressão Humidade
00:00 +26°C° 0.2 mm 2 m/s 738 mmHg 91%
01:00 +26°C° 0 mm 2 m/s 738 mmHg 92%
02:00 +26°C° 0 mm 2 m/s 738 mmHg 93%
03:00 +26°C° 0 mm 2 m/s 737 mmHg 93%
04:00 +30°C° 0 mm 3 m/s 739 mmHg 76%
05:00 +28°C° 0 mm 2 m/s 739 mmHg 85%
06:00 +26°C° 0 mm 2 m/s 738 mmHg 94%
07:00 +28°C° 0 mm 2 m/s 739 mmHg 86%
08:00 +30°C° 0 mm 3 m/s 739 mmHg 78%
09:00 +31°C° 0 mm 3 m/s 740 mmHg 69%
10:00 +33°C° 0 mm 3 m/s 739 mmHg 63%
11:00 +34°C° 0 mm 3 m/s 739 mmHg 58%
12:00 +36°C° 0 mm 3 m/s 739 mmHg 52%
13:00 +35°C° 0 mm 3 m/s 738 mmHg 53%
14:00 +35°C° 0 mm 3 m/s 738 mmHg 54%
15:00 +35°C° 0 mm 3 m/s 737 mmHg 55%
16:00 +34°C° 0.1 mm 3 m/s 737 mmHg 59%
17:00 +33°C° 0.1 mm 3 m/s 737 mmHg 63%
18:00 +31°C° 0.1 mm 3 m/s 738 mmHg 66%
19:00 +29°C° 0.4 mm 3 m/s 738 mmHg 73%
20:00 +28°C° 0.4 mm 3 m/s 739 mmHg 80%
21:00 +27°C° 0.4 mm 3 m/s 740 mmHg 87%
22:00 +27°C° 0 mm 3 m/s 739 mmHg 89%
23:00 +27°C° 0 mm 3 m/s 739 mmHg 91%

Amanhã, 19 Maio, Quarta-feira

Tempo Temperatura Precipitação Vento Pressão Humidade
00:00 +26°C° 0 mm 3 m/s 739 mmHg 93%
01:00 +26°C° 0 mm 2 m/s 739 mmHg 93%
02:00 +26°C° 0 mm 2 m/s 738 mmHg 94%
03:00 +26°C° 0 mm 1 m/s 738 mmHg 94%
04:00 +26°C° 0 mm 1 m/s 738 mmHg 95%
05:00 +26°C° 0 mm 1 m/s 738 mmHg 95%
06:00 +26°C° 0 mm 1 m/s 739 mmHg 95%
07:00 +27°C° 0 mm 2 m/s 739 mmHg 86%
08:00 +29°C° 0 mm 2 m/s 740 mmHg 77%
09:00 +31°C° 0 mm 3 m/s 740 mmHg 68%
10:00 +33°C° 0 mm 3 m/s 740 mmHg 62%
11:00 +34°C° 0 mm 3 m/s 739 mmHg 57%
12:00 +35°C° 0 mm 3 m/s 739 mmHg 52%
13:00 +35°C° 0 mm 3 m/s 738 mmHg 53%
14:00 +34°C° 0 mm 3 m/s 738 mmHg 55%
15:00 +34°C° 0 mm 3 m/s 738 mmHg 56%
16:00 +33°C° 0 mm 3 m/s 738 mmHg 59%
17:00 +31°C° 0 mm 3 m/s 738 mmHg 61%
18:00 +30°C° 0 mm 4 m/s 738 mmHg 64%
19:00 +29°C° 0 mm 4 m/s 739 mmHg 70%
20:00 +28°C° 0 mm 4 m/s 739 mmHg 76%
21:00 +27°C° 0 mm 4 m/s 740 mmHg 82%
22:00 +27°C° 0 mm 3 m/s 740 mmHg 84%
23:00 +27°C° 0 mm 3 m/s 740 mmHg 86%

Depois de amanhã, 20 Maio, Quinta-feira

Tempo Temperatura Precipitação Vento Pressão Humidade
00:00 +26°C° 0 mm 3 m/s 739 mmHg 88%
01:00 +26°C° 0 mm 3 m/s 739 mmHg 89%
02:00 +26°C° 0 mm 2 m/s 739 mmHg 90%
03:00 +26°C° 0 mm 2 m/s 738 mmHg 90%
04:00 +26°C° 0 mm 2 m/s 739 mmHg 91%
05:00 +26°C° 0 mm 2 m/s 739 mmHg 92%
06:00 +26°C° 0 mm 2 m/s 740 mmHg 93%
07:00 +27°C° 0 mm 2 m/s 740 mmHg 83%
08:00 +29°C° 0 mm 3 m/s 740 mmHg 73%
09:00 +32°C° 0 mm 4 m/s 741 mmHg 63%
10:00 +33°C° 0 mm 3 m/s 740 mmHg 59%
11:00 +34°C° 0 mm 3 m/s 740 mmHg 54%
12:00 +35°C° 0 mm 3 m/s 739 mmHg 50%
13:00 +35°C° 0 mm 3 m/s 739 mmHg 49%
14:00 +35°C° 0 mm 3 m/s 738 mmHg 49%
15:00 +35°C° 0 mm 3 m/s 737 mmHg 48%
16:00 +34°C° 0 mm 3 m/s 738 mmHg 52%
17:00 +33°C° 0 mm 3 m/s 738 mmHg 57%
18:00 +32°C° 0 mm 4 m/s 738 mmHg 62%
19:00 +30°C° 0 mm 3 m/s 739 mmHg 68%
20:00 +29°C° 0 mm 3 m/s 739 mmHg 74%
21:00 +27°C° 0 mm 3 m/s 740 mmHg 81%
22:00 +27°C° 0.2 mm 3 m/s 740 mmHg 85%
23:00 +26°C° 0.2 mm 2 m/s 740 mmHg 89%

21 Maio, Sexta-feira

Tempo Temperatura Precipitação Vento Pressão Humidade
00:00 +26°C° 0.2 mm 2 m/s 740 mmHg 94%
01:00 +26°C° 0 mm 2 m/s 739 mmHg 94%
02:00 +25°C° 0 mm 2 m/s 739 mmHg 95%
03:00 +25°C° 0 mm 2 m/s 739 mmHg 96%
04:00 +25°C° 0 mm 2 m/s 739 mmHg 96%
05:00 +25°C° 0 mm 2 m/s 739 mmHg 96%
06:00 +25°C° 0 mm 2 m/s 740 mmHg 96%
07:00 +27°C° 0 mm 2 m/s 740 mmHg 86%
08:00 +29°C° 0 mm 2 m/s 741 mmHg 76%
09:00 +31°C° 0 mm 3 m/s 741 mmHg 66%
10:00 +34°C° 0 mm 3 m/s 740 mmHg 58%
11:00 +35°C° 0 mm 3 m/s 740 mmHg 51%
12:00 +37°C° 0 mm 2 m/s 739 mmHg 43%
13:00 +38°C° 0 mm 3 m/s 738 mmHg 41%
14:00 +38°C° 0 mm 3 m/s 738 mmHg 39%
15:00 +39°C° 0 mm 3 m/s 737 mmHg 37%
16:00 +36°C° 0 mm 3 m/s 737 mmHg 46%
17:00 +34°C° 0 mm 4 m/s 737 mmHg 54%
18:00 +32°C° 0 mm 5 m/s 738 mmHg 62%
19:00 +30°C° 0 mm 4 m/s 738 mmHg 68%
20:00 +29°C° 0 mm 4 m/s 739 mmHg 75%
21:00 +28°C° 0 mm 4 m/s 739 mmHg 81%
22:00 +27°C° 0 mm 3 m/s 739 mmHg 83%
23:00 +27°C° 0 mm 3 m/s 739 mmHg 85%

22 Maio, Sábado

Tempo Temperatura Precipitação Vento Pressão Humidade
00:00 +27°C° 0 mm 2 m/s 739 mmHg 87%
01:00 +27°C° 0 mm 2 m/s 739 mmHg 88%
02:00 +26°C° 0 mm 2 m/s 739 mmHg 89%
03:00 +26°C° 0 mm 2 m/s 739 mmHg 90%
04:00 +26°C° 0 mm 2 m/s 739 mmHg 90%
05:00 +26°C° 0 mm 2 m/s 739 mmHg 91%
06:00 +26°C° 0 mm 1 m/s 739 mmHg 92%
07:00 +28°C° 0 mm 2 m/s 740 mmHg 82%
08:00 +30°C° 0 mm 2 m/s 740 mmHg 72%
09:00 +33°C° 0 mm 3 m/s 740 mmHg 62%
10:00 +34°C° 0 mm 2 m/s 740 mmHg 56%
11:00 +36°C° 0 mm 2 m/s 740 mmHg 49%
12:00 +38°C° 0 mm 2 m/s 739 mmHg 43%
13:00 +39°C° 0 mm 1 m/s 738 mmHg 39%
14:00 +39°C° 0 mm 1 m/s 738 mmHg 37%
15:00 +40°C° 0 mm 1 m/s 737 mmHg 35%
16:00 +37°C° 0.2 mm 2 m/s 737 mmHg 44%
17:00 +35°C° 0.2 mm 3 m/s 737 mmHg 54%
18:00 +32°C° 0.2 mm 4 m/s 737 mmHg 64%
19:00 +30°C° 0.4 mm 4 m/s 738 mmHg 72%
20:00 +28°C° 0.4 mm 3 m/s 738 mmHg 80%
21:00 +27°C° 0.4 mm 3 m/s 739 mmHg 88%
22:00 +27°C° 0 mm 2 m/s 739 mmHg 89%
23:00 +27°C° 0 mm 1 m/s 739 mmHg 91%

23 Maio, Domingo

Tempo Temperatura Precipitação Vento Pressão Humidade
00:00 +26°C° 0 mm 1 m/s 739 mmHg 92%
01:00 +26°C° 0 mm 1 m/s 739 mmHg 93%
02:00 +26°C° 0 mm 1 m/s 739 mmHg 94%
03:00 +26°C° 0 mm 1 m/s 738 mmHg 94%
04:00 +26°C° 0 mm 1 m/s 739 mmHg 94%
05:00 +26°C° 0 mm 1 m/s 739 mmHg 95%
06:00 +26°C° 0 mm 2 m/s 739 mmHg 95%
07:00 +28°C° 0 mm 2 m/s 739 mmHg 84%
08:00 +30°C° 0 mm 2 m/s 740 mmHg 73%
09:00 +33°C° 0 mm 3 m/s 740 mmHg 62%
10:00 +35°C° 0 mm 3 m/s 740 mmHg 56%
11:00 +36°C° 0 mm 3 m/s 740 mmHg 49%
12:00 +38°C° 0 mm 3 m/s 739 mmHg 43%
13:00 +38°C° 0 mm 3 m/s 739 mmHg 44%
14:00 +37°C° 0 mm 3 m/s 738 mmHg 46%
15:00 +37°C° 0 mm 4 m/s 737 mmHg 47%
16:00 +35°C° 0 mm 4 m/s 737 mmHg 51%
17:00 +34°C° 0 mm 4 m/s 737 mmHg 55%
18:00 +33°C° 0 mm 4 m/s 737 mmHg 58%
19:00 +30°C° 0.3 mm 4 m/s 738 mmHg 67%
20:00 +29°C° 0.3 mm 3 m/s 738 mmHg 77%
21:00 +27°C° 0.3 mm 3 m/s 739 mmHg 86%
22:00 +27°C° 0 mm 3 m/s 739 mmHg 88%
23:00 +27°C° 0 mm 2 m/s 739 mmHg 89%
Mostrar mais

Necessitamos do seu Consentimento

A Meteoprog e os seus Fornecedores de Serviços podem armazenar e aceder a dados pessoais como cookies, identificadores do dispositivo ou outras tecnologias semelhantes existentes no seu dispositivo e processar estes dados para personalizar conteúdos e anúncios, assim como funcionalidades nas redes sociais e análise de tráfego.

  • Armazenar e/ou aceder a informações no seu dispositivo

    Os cookies, identificadores do dispositivo ou outras informações podem ser armazenados ou acedidos no seu dispositivo, para os fins acima indicados.

  • Anúncios e conteúdos personalizados, medição de anúncios e conteúdos, dados sobre o público-alvo e desenvolvimento de produtos

    Os anúncios e os conteúdos podem ser personalizados com base num perfil. Podem ser adicionados dados adicionais para uma maior personalização dos anúncios e dos conteúdos. A eficácia dos anúncios e dos conteúdos pode ser medida. Podem ser obtidas informações sobre o público que visualizou os anúncios e os conteúdos. Estes dados podem ser usados para desenvolver ou melhorar sistemas, softwares ou a experiência do utilizador.

Ao clicar em "Eu concordo”, permitirá o uso de cookies, identificadores do dispositivo e web beacons mencionados ou outras tecnologias semelhantes. As configurações do navegador do seu dispositivo podem ser alteradas.

Para certos fins, podem ser invocados interesses legítimos ao invés de consentimento. Pode ler mais informação sobre este assunto na nossa Política de Privacidade e Cookies.